EW7999 Weather Reports


Display with metric or nautical units.
time (UTC)temp
F
wind
direction
speed
MPH
gust
MPH
rain 1hr
in
rain 24hr
in
rain mn
in
humidity
%
barometer
mb
20260505041600 70 100 0.0 2.0 0.00 0.00 0.00 73 999.2
20260505040059 71 100 0.0 3.0 0.00 0.00 0.00 73 999.1
20260505034558 72 167 1.0 4.0 0.00 0.00 0.00 71 999.2
20260505033057 72 295 0.0 4.0 0.00 0.00 0.00 69 999.1
20260505031556 73 178 0.0 5.0 0.00 0.00 0.00 68 999.5
20260505030056 73 326 0.0 4.0 0.00 0.00 0.00 67 999.5
20260505024556 74 109 1.0 6.0 0.00 0.00 0.00 66 999.7
20260505023058 74 259 0.0 4.0 0.00 0.00 0.00 65 999.4
20260505021554 74 184 1.0 6.0 0.00 0.00 0.00 64 999.4
20260505020055 74 200 1.0 7.0 0.00 0.00 0.00 63 1000.0
20260505014653 75 254 0.0 3.0 0.00 0.00 0.00 61 999.2
20260505013055 75 142 0.0 2.0 0.00 0.00 0.00 59 999.0
20260505011554 76 100 0.0 2.0 0.00 0.00 0.00 57 998.9
20260505010109 76 108 2.0 5.0 0.00 0.00 0.00 56 998.6
20260505004551 77 118 0.0 5.0 0.00 0.00 0.00 55 998.6
20260505003054 78 246 2.0 7.0 0.00 0.00 0.00 53 998.8
20260505001549 79 290 1.0 4.0 0.00 0.00 0.00 51 998.7
20260505000049 79 294 0.0 5.0 0.00 0.00 0.00 50 998.9
20260504234546 79 249 0.0 5.0 0.00 0.00 0.00 49 999.0
20260504233044 80 107 2.0 9.0 0.00 0.00 0.00 48 999.0
20260504231546 81 246 1.0 14.0 0.00 0.00 0.00 46 999.1
20260504230046 82 267 2.0 8.0 0.00 0.00 0.00 45 999.1
20260504224543 82 284 1.0 6.0 0.00 0.00 0.00 43 999.1
20260504223057 83 251 2.0 9.0 0.00 0.00 0.00 42 999.1
20260504221555 83 237 1.0 4.0 0.00 0.00 0.00 42 999.1
20260504220042 84 260 2.0 7.0 0.00 0.00 0.00 40 999.2
20260504214539 85 167 2.0 9.0 0.00 0.00 0.00 40 999.3
20260504213052 85 285 2.0 8.0 0.00 0.00 0.00 39 999.3
20260504211540 85 277 2.0 8.0 0.00 0.00 0.00 39 999.5
20260504210034 85 257 1.0 5.0 0.00 0.00 0.00 39 999.7
20260504204533 87 275 1.0 5.0 0.00 0.00 0.00 37 999.9
20260504203044 87 258 1.0 8.0 0.00 0.00 0.00 36 999.9
20260504201531 87 267 3.0 8.0 0.00 0.00 0.00 36 1000.2
20260504200030 88 285 0.0 4.0 0.00 0.00 0.00 35 1000.3
20260504194534 88 269 1.0 5.0 0.00 0.00 0.00 34 1000.5
20260504193024 88 185 2.0 9.0 0.00 0.00 0.00 34 1000.6
20260504191532 87 320 0.0 3.0 0.00 0.00 0.00 36 1000.8
20260504190020 87 282 0.0 5.0 0.00 0.00 0.00 35 1000.9
20260504184519 86 277 2.0 6.0 0.00 0.00 0.00 36 1001.0
20260504183014 86 292 0.0 5.0 0.00 0.00 0.00 37 1001.1
20260504181516 84 302 0.0 3.0 0.00 0.00 0.00 38 1001.5
20260504180015 84 308 0.0 3.0 0.00 0.00 0.00 37 1001.7
20260504174507 84 296 1.0 3.0 0.00 0.00 0.00 38 1001.8
20260504173003 82 287 0.0 3.0 0.00 0.00 0.00 40 1001.8
20260504171501 81 278 0.0 5.0 0.00 0.00 0.00 41 1001.8
20260504081553 66 317 1.0 6.0 0.00 0.00 0.00 48 1004.8
20260504080110 67 313 0.0 8.0 0.00 0.00 0.00 48 1005.0
20260504044527 70 154 2.0 8.0 0.00 0.00 0.00 43 1006.1
20260504043026 70 160 2.0 13.0 0.00 0.00 0.00 42 1006.2